Location: Long Geng
(2.6167°N, 114.1333°E)
Time: 00:07:08
(UTC+00:00)

Cosmos 1634 Rocket - Pass Details

Date: 14 May 2021
Orbit: 959 x 992 km, 82.9° (Epoch: 12 June)

Event Time Altitude Azimuth Distance (km) Brightness Sun altitude
Rises 21:05:27 0° 357° (N) 3,646 7.2 -16.7°
Reaches altitude 10° 21:07:56 10° 357° (N) 2,706 6.5 -16.1°
Maximum altitude 21:14:08 90° 70° (ENE) 981 4.0 -14.6°
Drops below altitude 10° 21:20:26 10° 177° (S) 2,737 6.2 -13.2°
Sets 21:22:57 0° 177° (S) 3,690 6.9 -12.6°
